Location: Buch
(49.7331°N, 12.1098°E)
Time: 10:03:39
(UTC+00:00)

USA 306 - Pass Details

Date: 12 May 2021
Orbit: 565 x 575 km, 54.0° (Epoch: 11 May)

Event Time Altitude Azimuth Distance (km) Brightness Sun altitude
Rises 20:42:52 0° 295° (WNW) 2,773 7.5 -14.7°
Reaches altitude 10° 20:45:11 10° 289° (WNW) 1,875 6.3 -14.9°
Maximum altitude 20:49:14 43° 218° (SW) 805 3.5 -15.3°
Enters shadow 20:51:02 27° 164° (SSE) 1,100 3.8 -15.5°
